Hourly Weather Alicante

Today, 8 March, Monday

Time Temperature Precipitation Wind Pressure Humidity
00:00 +13°C° 0 mm 2 mps 760 mmHg 92%
01:00 +13°C° 0.6 mm 2 mps 759 mmHg 91%
02:00 +13°C° 0.6 mm 2 mps 759 mmHg 90%
03:00 +13°C° 0.6 mm 2 mps 759 mmHg 89%
04:00 +12°C° 0.1 mm 2 mps 759 mmHg 88%
05:00 +12°C° 0.1 mm 2 mps 759 mmHg 88%
06:00 +12°C° 0.1 mm 2 mps 759 mmHg 88%
07:00 +13°C° 0 mm 1 mps 759 mmHg 83%
08:00 +14°C° 0 mm 1 mps 759 mmHg 78%
09:00 +14°C° 0 mm 1 mps 759 mmHg 72%
10:00 +15°C° 0.1 mm 1 mps 759 mmHg 68%
11:00 +16°C° 0.1 mm 2 mps 759 mmHg 64%
12:00 +17°C° 0.1 mm 2 mps 759 mmHg 60%
13:00 +17°C° 0.5 mm 2 mps 759 mmHg 63%
14:00 +16°C° 0.5 mm 3 mps 759 mmHg 67%
15:00 +15°C° 0.5 mm 4 mps 758 mmHg 70%
16:00 +14°C° 0.4 mm 3 mps 758 mmHg 75%
17:00 +14°C° 0.4 mm 3 mps 759 mmHg 81%
18:00 +13°C° 0.4 mm 3 mps 759 mmHg 86%
19:00 +12°C° 0.6 mm 3 mps 759 mmHg 86%
20:00 +12°C° 0.6 mm 3 mps 760 mmHg 87%
21:00 +13°C° 0.6 mm 2 mps 761 mmHg 87%
22:00 +13°C° 0.2 mm 2 mps 761 mmHg 86%
23:00 +13°C° 0.2 mm 2 mps 761 mmHg 86%

Tomorrow, 9 March, Tuesday

Time Temperature Precipitation Wind Pressure Humidity
00:00 +12°C° 0.2 mm 3 mps 761 mmHg 85%
01:00 +12°C° 0.1 mm 2 mps 761 mmHg 86%
02:00 +12°C° 0.1 mm 2 mps 761 mmHg 87%
03:00 +12°C° 0.1 mm 2 mps 760 mmHg 88%
04:00 +12°C° 0 mm 2 mps 761 mmHg 88%
05:00 +12°C° 0 mm 2 mps 761 mmHg 88%
06:00 +12°C° 0 mm 2 mps 761 mmHg 88%
07:00 +12°C° 0 mm 2 mps 761 mmHg 82%
08:00 +13°C° 0 mm 2 mps 762 mmHg 77%
09:00 +14°C° 0 mm 1 mps 762 mmHg 71%
10:00 +15°C° 0 mm 2 mps 762 mmHg 67%
11:00 +15°C° 0 mm 2 mps 762 mmHg 64%
12:00 +16°C° 0 mm 2 mps 762 mmHg 60%
13:00 +16°C° 0.1 mm 3 mps 762 mmHg 63%
14:00 +16°C° 0.1 mm 3 mps 762 mmHg 65%
15:00 +15°C° 0.1 mm 4 mps 762 mmHg 68%
16:00 +14°C° 0 mm 3 mps 762 mmHg 71%
17:00 +13°C° 0 mm 3 mps 762 mmHg 75%
18:00 +13°C° 0 mm 2 mps 762 mmHg 79%
19:00 +13°C° 0 mm 2 mps 762 mmHg 82%
20:00 +12°C° 0 mm 1 mps 763 mmHg 85%
21:00 +12°C° 0 mm 1 mps 764 mmHg 88%
22:00 +11°C° 0 mm 1 mps 764 mmHg 89%
23:00 +11°C° 0 mm 1 mps 763 mmHg 90%

Day after tomorrow, 10 March, Wednesday

Time Temperature Precipitation Wind Pressure Humidity
00:00 +11°C° 0 mm 1 mps 763 mmHg 91%
01:00 +11°C° 0 mm 1 mps 763 mmHg 91%
02:00 +10°C° 0 mm 1 mps 763 mmHg 91%
03:00 +10°C° 0 mm 1 mps 764 mmHg 90%
04:00 +10°C° 0 mm 1 mps 764 mmHg 90%
05:00 +9°C° 0 mm 2 mps 764 mmHg 89%
06:00 +9°C° 0 mm 2 mps 764 mmHg 89%
07:00 +12°C° 0 mm 2 mps 765 mmHg 81%
08:00 +13°C° 0 mm 2 mps 765 mmHg 73%
09:00 +15°C° 0 mm 2 mps 766 mmHg 65%
10:00 +16°C° 0 mm 2 mps 766 mmHg 58%
11:00 +17°C° 0 mm 2 mps 766 mmHg 50%
12:00 +18°C° 0 mm 2 mps 766 mmHg 42%
13:00 +18°C° 0 mm 2 mps 766 mmHg 45%
14:00 +18°C° 0 mm 3 mps 766 mmHg 48%
15:00 +18°C° 0 mm 3 mps 765 mmHg 51%
16:00 +17°C° 0 mm 3 mps 766 mmHg 61%
17:00 +16°C° 0 mm 2 mps 766 mmHg 71%
18:00 +14°C° 0 mm 2 mps 766 mmHg 80%
19:00 +14°C° 0 mm 2 mps 767 mmHg 84%
20:00 +13°C° 0 mm 2 mps 767 mmHg 88%
21:00 +12°C° 0 mm 1 mps 768 mmHg 91%
22:00 +12°C° 0 mm 1 mps 768 mmHg 91%
23:00 +12°C° 0 mm 1 mps 768 mmHg 90%

11 March, Thursday

Time Temperature Precipitation Wind Pressure Humidity
00:00 +10°C° 0 mm 2 mps 768 mmHg 90%
01:00 +10°C° 0 mm 2 mps 768 mmHg 85%
02:00 +10°C° 0 mm 2 mps 768 mmHg 80%
03:00 +10°C° 0 mm 2 mps 767 mmHg 75%
04:00 +10°C° 0 mm 2 mps 767 mmHg 70%
05:00 +10°C° 0 mm 3 mps 767 mmHg 64%
06:00 +10°C° 0 mm 3 mps 767 mmHg 59%
07:00 +12°C° 0 mm 3 mps 768 mmHg 52%
08:00 +14°C° 0 mm 3 mps 768 mmHg 46%
09:00 +17°C° 0 mm 3 mps 768 mmHg 39%
10:00 +19°C° 0 mm 3 mps 768 mmHg 37%
11:00 +20°C° 0 mm 4 mps 768 mmHg 35%
12:00 +21°C° 0 mm 4 mps 768 mmHg 32%
13:00 +22°C° 0 mm 5 mps 767 mmHg 31%
14:00 +22°C° 0 mm 5 mps 767 mmHg 30%
15:00 +23°C° 0 mm 6 mps 766 mmHg 29%
16:00 +21°C° 0 mm 5 mps 766 mmHg 38%
17:00 +19°C° 0 mm 5 mps 766 mmHg 48%
18:00 +17°C° 0 mm 4 mps 766 mmHg 57%
19:00 +17°C° 0 mm 4 mps 767 mmHg 58%
20:00 +15°C° 0 mm 4 mps 767 mmHg 60%
21:00 +14°C° 0 mm 3 mps 767 mmHg 61%
22:00 +14°C° 0 mm 3 mps 767 mmHg 62%
23:00 +14°C° 0 mm 3 mps 767 mmHg 63%

12 March, Friday

Time Temperature Precipitation Wind Pressure Humidity
00:00 +14°C° 0 mm 3 mps 767 mmHg 63%
01:00 +14°C° 0 mm 3 mps 766 mmHg 65%
02:00 +13°C° 0 mm 3 mps 766 mmHg 67%
03:00 +13°C° 0 mm 3 mps 765 mmHg 69%
04:00 +13°C° 0 mm 3 mps 765 mmHg 71%
05:00 +13°C° 0 mm 3 mps 765 mmHg 72%
06:00 +13°C° 0 mm 3 mps 765 mmHg 74%
07:00 +14°C° 0 mm 4 mps 765 mmHg 69%
08:00 +17°C° 0 mm 4 mps 765 mmHg 64%
09:00 +19°C° 0 mm 4 mps 765 mmHg 59%
10:00 +20°C° 0 mm 4 mps 765 mmHg 53%
11:00 +21°C° 0 mm 4 mps 765 mmHg 48%
12:00 +23°C° 0 mm 4 mps 765 mmHg 42%
13:00 +23°C° 0 mm 4 mps 764 mmHg 42%
14:00 +23°C° 0 mm 5 mps 763 mmHg 42%
15:00 +23°C° 0 mm 5 mps 763 mmHg 42%
16:00 +22°C° 0 mm 5 mps 763 mmHg 46%
17:00 +21°C° 0 mm 4 mps 763 mmHg 51%
18:00 +19°C° 0 mm 4 mps 763 mmHg 56%
19:00 +18°C° 0 mm 4 mps 763 mmHg 59%
20:00 +18°C° 0 mm 4 mps 764 mmHg 63%
21:00 +17°C° 0 mm 3 mps 764 mmHg 66%
22:00 +15°C° 0 mm 4 mps 765 mmHg 71%
23:00 +14°C° 0 mm 4 mps 765 mmHg 76%

13 March, Saturday

Time Temperature Precipitation Wind Pressure Humidity
00:00 +14°C° 0 mm 4 mps 765 mmHg 81%
01:00 +13°C° 0 mm 4 mps 765 mmHg 84%
02:00 +13°C° 0 mm 4 mps 765 mmHg 86%
03:00 +12°C° 0 mm 3 mps 765 mmHg 88%
04:00 +12°C° 0 mm 3 mps 766 mmHg 87%
05:00 +11°C° 0 mm 3 mps 766 mmHg 85%
06:00 +11°C° 0 mm 3 mps 766 mmHg 84%
07:00 +12°C° 0 mm 3 mps 767 mmHg 78%
08:00 +13°C° 0 mm 3 mps 767 mmHg 73%
09:00 +16°C° 0 mm 3 mps 768 mmHg 67%
10:00 +17°C° 0 mm 3 mps 768 mmHg 64%
11:00 +17°C° 0 mm 3 mps 768 mmHg 61%
12:00 +18°C° 0 mm 3 mps 768 mmHg 58%
13:00 +18°C° 0 mm 3 mps 768 mmHg 59%
14:00 +18°C° 0 mm 3 mps 768 mmHg 61%
15:00 +17°C° 0 mm 3 mps 767 mmHg 62%
16:00 +16°C° 0 mm 3 mps 767 mmHg 66%
17:00 +15°C° 0 mm 2 mps 767 mmHg 70%
18:00 +15°C° 0 mm 2 mps 767 mmHg 74%
19:00 +14°C° 0 mm 1 mps 768 mmHg 77%
20:00 +13°C° 0 mm 1 mps 768 mmHg 80%
21:00 +12°C° 0 mm 1 mps 769 mmHg 83%
22:00 +12°C° 0 mm 1 mps 769 mmHg 83%
23:00 +12°C° 0 mm 1 mps 769 mmHg 83%
Show more